Lid_Strength_Index
8 11 12 10 10 10 10 11 12 10 9 10 11 11 10 8 8 8 8 7 7 7 6 6 6 6 5 5 5 6 6 5 5 4 4 3 3 3 2 2 2 3 3 4
12 12 9 9 9 11 11 12 12 10 9 11 11 12 10 9 8 8 8 8 8 7 7 7 6 6 6 7 6 6 6 6 6 5 4 4 4 3 3 3 3 3 4 4
12 10 9 10 10 11 11 12 12 13 11 11 11 12 10 9 8 8 8 8 8 7 8 8 8 8 8 8 7 7 7 7 6 6 6 5 4 4 5 4 4 4 4 5
11 10 11 11 12 11 14 11 12 12 14 15 11 16 11 9 9 8 8 8 8 8 9 9 9 9 9 9 8 8 7 8 7 7 7 7 7 7 6 6 5 5 5 5
12 12 13 13 12 11 13 12 12 13 13 13 13 15 12 10 11 10 9 10 9 9 9 10 10 10 10 9 9 9 9 8 8 7 8 8 8 7 6 6 6 6 6 6
11 11 11 11 11 11 11 12 12 12 13 16 13 13 13 12 11 10 10 10 10 10 10 10 10 10 10 10 9 9 9 9 9 9 9 9 8 8 8 8 7 7 7 7
10 11 11 11 12 12 13 13 16 16 16 17 11 13 12 10 8 10 10 10 9 9 9 9 10 10 10 11 11 10 10 10 10 9 9 10 10 9 9 8 8 8 8 8
14 14 12 10 11 11 12 11 15 22 19 16 12 16 13 8 9 9 9 9 10 10 9 9 10 10 10 10 10 10 11 11 10 10 9 9 9 9 9 9 9 9 9 8
13 13 11 10 10 10 11 14 11 14 14 17 14 12 10 8 9 10 10 10 11 11 10 10 10 10 10 10 10 10 10 10 10 10 9 9 9 10 10 10 9 9 9 9
11 14 10 10 10 10 11 10 14 13 19 20 16 14 13 10 10 10 11 11 11 11 11 10 10 10 10 10 10 9 9 9 9 9 9 9 9 9 9 10 10 10 10 10
10 11 13 9 11 11 10 11 11 11 13 19 19 16 9 9 9 11 11 11 11 11 11 11 11 10 10 10 10 9 9 9 10 10 9 9 9 9 9 9 9 10 10 10
8 11 15 12 9 7 8 10 10 15 16 14 15 15 7 7 10 11 11 11 11 11 11 11 11 11 11 11 11 11 10 10 10 10 10 9 9 10 10 10 10 10 10 9
9 12 16 14 10 9 12 11 11 12 14 17 19 16 8 8 9 11 11 11 11 11 11 12 12 12 12 11 10 10 10 10 9 10 9 9 10 11 12 12 11 11 10 9
8 12 15 17 14 12 14 12 11 13 16 16 16 14 10 10 11 11 12 12 13 13 12 12 13 12 12 11 11 10 10 9 9 10 10 10 10 10 12 12 12 12 11 10
9 14 12 12 11 11 12 13 12 13 12 16 13 14 11 10 11 11 11 12 12 12 12 11 12 12 12 12 11 9 9 9 9 10 10 10 9 9 11 12 12 13 13 12
10 13 12 15 12 12 13 12 12 12 12 12 12 12 8 10 10 11 11 11 11 11 10 10 10 10 10 10 10 10 10 9 9 10 10 10 10 10 11 11 11 13 14 13
12 13 14 17 13 14 18 16 14 13 12 12 14 12 11 11 12 12 12 11 11 10 9 9 9 9 9 9 9 9 9 9 9 10 10 10 10 11 11 12 12 12 13 13
13 14 14 17 17 22 15 12 12 14 13 11 11 10 11 11 10 10 9 10 10 9 9 8 8 8 7 7 7 8 8 8 9 10 10 9 10 10 11 12 12 13 13 13
12 13 16 19 18 16 15 13 14 14 14 10 10 10 10 10 10 10 8 7 8 8 7 7 6 6 6 7 7 8 9 9 9 10 10 9 10 10 11 12 12 13 13 13
13 12 15 17 21 22 15 13 11 11 16 10 9 10 10 10 14 11 8 7 7 6 6 6 6 7 7 8 8 9 10 10 10 10 10 10 10 11 12 12 13 13 13 14
17 16 17 16 18 16 11 11 10 17 14 10 9 9 10 10 9 8 7 7 7 7 7 7 8 9 9 9 10 11 11 12 11 11 11 11 11 11 12 13 14 15 15 15
17 17 18 16 18 19 9 10 14 10 9 9 8 9 9 9 8 8 8 8 8 8 9 9 10 11 11 11 12 13 13 12 12 13 13 14 14 13 13 15 16 16 16 17
17 13 14 14 14 9 8 7 7 7 8 8 8 8 8 9 10 9 10 9 10 10 11 11 12 14 13 13 14 16 15 15 16 17 18 18 17 17 16 17 17 17 17 17
11 10 12 12 10 9 8 7 6 6 7 7 7 9 10 11 11 11 11 12 12 12 13 13 15 16 16 16 16 17 17 18 21 22 22 21 21 21 20 19 19 19 19 18
10 10 11 11 10 8 8 7 7 7 7 9 10 11 11 12 13 13 13 13 14 14 15 15 17 17 18 18 19 20 21 22 23 24 24 24 23 23 23 21 21 20 19 18
9 10 11 12 8 8 9 6 7 8 9 10 12 12 12 13 14 14 15 15 15 16 17 18 18 19 20 21 22 23 23 24 24 25 24 24 25 24 24 24 23 19 18 17